| time (UTC) | temp F | wind direction | speed knots | gust knots | rain 1hr in | rain 24hr in | rain mn in | humidity % | barometer mb |
| 20260904094533 | 71 | 343 | 2.6 | 0.0 | 0.00 | 0.00 | 0.00 | 100 | 1011.0 |
| 20260904093026 | 71 | 343 | 3.5 | 0.0 | 0.00 | 0.00 | 0.00 | 100 | 1010.9 |
| 20260904091519 | 71 | 339 | 3.5 | 0.0 | 0.00 | 0.00 | 0.00 | 100 | 1010.8 |
| 20260904090003 | 72 | 355 | 3.5 | 0.0 | 0.00 | 0.00 | 0.00 | 100 | 1010.6 |
| 20260904084554 | 72 | 335 | 4.3 | 0.0 | 0.00 | 0.00 | 0.00 | 100 | 1010.5 |
| 20260904083047 | 72 | 350 | 7.0 | 0.0 | 0.00 | 0.00 | 0.00 | 100 | 1010.3 |
| 20260904081547 | 72 | 5 | 5.2 | 0.0 | 0.00 | 0.00 | 0.00 | 100 | 1010.3 |
| 20260904080026 | 72 | 350 | 6.1 | 0.0 | 0.00 | 0.00 | 0.00 | 100 | 1010.1 |
| 20260904074517 | 72 | 335 | 5.2 | 0.0 | 0.00 | 0.00 | 0.00 | 100 | 1010.1 |
| 20260904073011 | 72 | 338 | 2.6 | 0.0 | 0.00 | 0.00 | 0.00 | 100 | 1010.0 |
| 20260904071559 | 73 | 346 | 0.0 | 0.0 | 0.00 | 0.00 | 0.00 | 100 | 1010.2 |
| 20260904070051 | 73 | 346 | 0.0 | 0.0 | 0.00 | 0.00 | 0.00 | 100 | 1010.1 |
| 20260904064644 | 73 | 346 | 0.0 | 0.0 | 0.00 | 0.00 | 0.00 | 100 | 1010.1 |
| 20260904063039 | 73 | 355 | 0.0 | 0.0 | 0.00 | 0.00 | 0.00 | 100 | 1010.1 |
| 20260904061625 | 73 | 355 | 0.0 | 0.0 | 0.00 | 0.00 | 0.00 | 100 | 1010.2 |
| 20260904060117 | 73 | 38 | 0.0 | 0.0 | 0.00 | 0.00 | 0.00 | 100 | 1010.3 |
| 20260904054517 | 74 | 38 | 0.0 | 0.0 | 0.00 | 0.00 | 0.00 | 100 | 1010.5 |
| 20260904053103 | 74 | 38 | 0.0 | 0.0 | 0.00 | 0.00 | 0.00 | 100 | 1010.6 |
| 20260904051650 | 73 | 38 | 0.0 | 0.0 | 0.00 | 0.00 | 0.00 | 100 | 1010.6 |
| 20260904050040 | 73 | 38 | 0.0 | 0.0 | 0.00 | 0.00 | 0.00 | 100 | 1010.7 |
| 20260904044547 | 72 | 38 | 0.0 | 0.0 | 0.00 | 0.00 | 0.00 | 100 | 1010.7 |
| 20260904043029 | 72 | 38 | 0.0 | 0.0 | 0.00 | 0.00 | 0.00 | 100 | 1010.6 |
| 20260904041612 | 71 | 38 | 0.0 | 0.0 | 0.00 | 0.00 | 0.00 | 100 | 1010.6 |
| 20260904040104 | 71 | 38 | 0.0 | 0.0 | 0.00 | 0.00 | 0.00 | 100 | 1010.4 |
| 20260904034555 | 71 | 38 | 0.0 | 0.0 | 0.00 | 0.00 | 0.00 | 100 | 1010.4 |
| 20260904033146 | 72 | 38 | 0.0 | 0.0 | 0.00 | 0.00 | 0.00 | 100 | 1010.3 |
| 20260904031638 | 72 | 38 | 0.0 | 0.0 | 0.00 | 0.00 | 0.00 | 100 | 1010.3 |
| 20260904030129 | 72 | 38 | 0.0 | 0.0 | 0.00 | 0.00 | 0.00 | 100 | 1010.4 |
| 20260904024622 | 72 | 38 | 0.0 | 0.0 | 0.00 | 0.00 | 0.00 | 100 | 1010.4 |
| 20260904023010 | 72 | 38 | 0.0 | 0.0 | 0.00 | 0.00 | 0.00 | 100 | 1010.3 |
| 20260904021503 | 72 | 38 | 0.0 | 0.0 | 0.00 | 0.00 | 0.00 | 100 | 1010.5 |
| 20260904020155 | 72 | 38 | 0.0 | 0.0 | 0.00 | 0.00 | 0.00 | 100 | 1010.6 |
| 20260904014550 | 73 | 38 | 0.0 | 0.0 | 0.00 | 0.00 | 0.00 | 100 | 1010.6 |
| 20260904013043 | 73 | 38 | 0.0 | 0.0 | 0.00 | 0.00 | 0.00 | 100 | 1010.4 |
| 20260904011528 | 73 | 38 | 0.0 | 0.0 | 0.00 | 0.00 | 0.00 | 100 | 1010.3 |
| 20260904010020 | 73 | 38 | 0.0 | 0.0 | 0.00 | 0.00 | 0.00 | 100 | 1010.5 |
| 20260904004510 | 74 | 38 | 0.0 | 0.0 | 0.00 | 0.00 | 0.00 | 100 | 1010.6 |
| 20260904003100 | 74 | 38 | 0.0 | 0.0 | 0.00 | 0.00 | 0.00 | 100 | 1010.5 |
| 20260904001550 | 74 | 38 | 0.0 | 0.0 | 0.00 | 0.00 | 0.00 | 100 | 1010.3 |
| 20260904000041 | 74 | 38 | 0.0 | 0.0 | 0.00 | 0.00 | 0.00 | 100 | 1010.2 |
| 20260903234633 | 74 | 38 | 0.0 | 0.0 | 0.00 | 0.00 | 0.00 | 100 | 1010.2 |
| 20260903231515 | 75 | 38 | 0.9 | 0.0 | 0.00 | 0.00 | 0.00 | 100 | 1010.1 |
| 20260903224557 | 75 | 38 | 0.0 | 0.0 | 0.00 | 0.00 | 0.00 | 100 | 1010.1 |
| 20260903223048 | 76 | 38 | 0.0 | 0.0 | 0.00 | 0.00 | 0.00 | 100 | 1009.9 |
| 20260903221539 | 76 | 38 | 0.0 | 0.0 | 0.00 | 0.00 | 0.00 | 100 | 1009.9 |
| 20260903220129 | 76 | 38 | 0.9 | 0.0 | 0.00 | 0.00 | 0.00 | 100 | 1010.2 |
| 20260903214620 | 76 | 38 | 0.0 | 0.0 | 0.00 | 0.00 | 0.00 | 100 | 1010.1 |
| 20260903213013 | 75 | 38 | 0.0 | 0.0 | 0.00 | 0.00 | 0.00 | 100 | 1010.0 |
| 20260903211605 | 75 | 38 | 1.7 | 0.0 | 0.00 | 0.00 | 0.00 | 100 | 1010.0 |
| 20260903210101 | 75 | 38 | 1.7 | 0.0 | 0.00 | 0.00 | 0.00 | 100 | 1010.1 |
| 20260903204542 | 75 | 38 | 1.7 | 0.0 | 0.00 | 0.00 | 0.00 | 100 | 1010.4 |
| 20260903203035 | 75 | 39 | 3.5 | 0.0 | 0.00 | 0.00 | 0.00 | 100 | 1010.4 |
| 20260903201525 | 75 | 38 | 1.7 | 0.0 | 0.00 | 0.00 | 0.00 | 100 | 1010.5 |
| 20260903200017 | 75 | 36 | 2.6 | 0.0 | 0.00 | 0.00 | 0.00 | 100 | 1010.5 |
| 20260903193159 | 75 | 316 | 2.6 | 0.0 | 0.00 | 0.00 | 0.00 | 100 | 1010.6 |
| 20260903191554 | 75 | 313 | 1.7 | 0.0 | 0.00 | 0.00 | 0.00 | 100 | 1010.9 |
| 20260903190039 | 75 | 313 | 1.7 | 0.0 | 0.00 | 0.00 | 0.00 | 100 | 1011.0 |
| 20260903183023 | 75 | 306 | 2.6 | 0.0 | 0.00 | 0.00 | 0.00 | 100 | 1011.2 |
| 20260903181513 | 75 | 304 | 2.6 | 0.0 | 0.00 | 0.00 | 0.00 | 100 | 1011.1 |
| 20260903180004 | 76 | 298 | 1.7 | 0.0 | 0.00 | 0.00 | 0.00 | 100 | 1011.1 |
| 20260903174656 | 76 | 289 | 1.7 | 0.0 | 0.00 | 0.00 | 0.00 | 100 | 1011.3 |
| 20260903173047 | 77 | 287 | 0.9 | 0.0 | 0.00 | 0.00 | 0.00 | 100 | 1011.2 |
| 20260903171538 | 76 | 287 | 0.9 | 0.0 | 0.00 | 0.00 | 0.00 | 100 | 1011.3 |
| 20260903170029 | 76 | 287 | 0.9 | 0.0 | 0.00 | 0.00 | 0.00 | 100 | 1011.3 |
| 20260903164520 | 76 | 287 | 1.7 | 0.0 | 0.00 | 0.00 | 0.00 | 100 | 1011.3 |
| 20260903163011 | 75 | 287 | 1.7 | 0.0 | 0.00 | 0.00 | 0.00 | 100 | 1011.5 |
| 20260903161500 | 75 | 287 | 0.9 | 0.0 | 0.00 | 0.00 | 0.00 | 100 | 1011.6 |
| 20260903160053 | 75 | 287 | 1.7 | 0.0 | 0.00 | 0.00 | 0.00 | 100 | 1011.7 |
| 20260903154544 | 75 | 287 | 1.7 | 0.0 | 0.00 | 0.00 | 0.00 | 100 | 1011.7 |
| 20260903153037 | 74 | 287 | 1.7 | 0.0 | 0.00 | 0.00 | 0.00 | 100 | 1011.7 |
| 20260903151525 | 74 | 287 | 1.7 | 0.0 | 0.00 | 0.00 | 0.00 | 100 | 1011.8 |
| 20260903150020 | 74 | 287 | 1.7 | 0.0 | 0.00 | 0.00 | 0.00 | 100 | 1011.8 |
| 20260903144507 | 73 | 287 | 2.6 | 0.0 | 0.00 | 0.00 | 0.00 | 100 | 1011.7 |
| 20260903143109 | 74 | 287 | 2.6 | 0.0 | 0.00 | 0.00 | 0.00 | 100 | 1011.7 |
| 20260903141550 | 73 | 287 | 2.6 | 0.0 | 0.00 | 0.00 | 0.00 | 100 | 1011.6 |
| 20260903140140 | 73 | 287 | 2.6 | 0.0 | 0.00 | 0.00 | 0.00 | 100 | 1011.6 |
| 20260903134634 | 73 | 286 | 2.6 | 0.0 | 0.00 | 0.00 | 0.00 | 100 | 1011.7 |
| 20260903133023 | 73 | 277 | 1.7 | 0.0 | 0.00 | 0.00 | 0.00 | 100 | 1011.5 |
| 20260903131515 | 73 | 225 | 0.9 | 0.0 | 0.00 | 0.00 | 0.00 | 100 | 1011.6 |
| 20260903130006 | 73 | 225 | 0.0 | 0.0 | 0.00 | 0.00 | 0.00 | 100 | 1011.7 |
| 20260903121539 | 71 | 197 | 0.9 | 0.0 | 0.00 | 0.00 | 0.00 | 100 | 1011.4 |
| 20260903120031 | 71 | 196 | 1.7 | 0.0 | 0.00 | 0.00 | 0.00 | 100 | 1011.4 |
| 20260903114524 | 71 | 196 | 0.9 | 0.0 | 0.00 | 0.00 | 0.00 | 100 | 1011.2 |
| 20260903113027 | 71 | 196 | 0.9 | 0.0 | 0.00 | 0.00 | 0.00 | 100 | 1011.0 |
| 20260903111502 | 71 | 196 | 0.9 | 0.0 | 0.00 | 0.00 | 0.00 | 100 | 1010.9 |
| 20260903110054 | 71 | 196 | 1.7 | 0.0 | 0.00 | 0.00 | 0.00 | 100 | 1010.8 |
| 20260903104545 | 71 | 195 | 1.7 | 0.0 | 0.00 | 0.00 | 0.00 | 100 | 1010.6 |
| 20260903103036 | 71 | 204 | 0.9 | 0.0 | 0.00 | 0.00 | 0.00 | 100 | 1010.5 |
| 20260903101527 | 71 | 204 | 2.6 | 0.0 | 0.00 | 0.00 | 0.00 | 100 | 1010.5 |
| 20260903100021 | 71 | 237 | 2.6 | 0.0 | 0.00 | 0.00 | 0.00 | 100 | 1010.4 |